Notices

What's New in latest Release from April 7th, 2021:

- Updated Glossary, including Speed of Maximum Gust, and Total Hourly Precipitation

- Updated national and regional climate services offices contacts and prices information

- Addition of station inventory lists for 1981-2010, 1971-2000, and 1961-1990 Normals.

If you haven't already, please take our survey and provide feedback about our website: https://eccc.sondage-survey.ca/f/LanguageSelection.aspx?s=442ca660-fcf1-47c0-95a9-59707d6fd709

Hourly Data Report for November 10, 2020

SHEARWATER RCS
NOVA SCOTIA
Current Station Operator: ECCC - MSC

44°37'47.000" N
63°30'48.000" W
24.00 m
8205092
71264
AAW

Download Data

Hourly Data (November 2020)
Hourly Data Report for November 10, 2020
TIME
LST
Temp Definition
°C
Dew Point Definition
°C
Rel Hum Definition
%
Precip. Amount Definition
mm

Wind Dir Definition
10's deg

Wind Spd Definition
km/h
Visibility Definition
km
Stn Press Definition
kPa
Hmdx Definition


Wind Chill Definition


Weather Definition


00:00 7.1 6.6 97 0.0 17 2   101.80     LegendNANA
01:00 7.2 6.7 97 0.0 16 1   101.73     LegendNANA
02:00 7.3 6.8 97 0.0 1 4   101.74     LegendNANA
03:00 6.5 5.9 96 0.0 17 2   101.72     LegendNANA
04:00 6.7 6.2 97 0.0 6 6   101.69     LegendNANA
05:00 6.9 6.4 97 0.0 15 4   101.66     LegendNANA
06:00 7.9 7.4 97 0.0 0 1   101.69     LegendNANA
07:00 7.6 7.0 96 0.0 22 6   101.70     LegendNANA
08:00 10.0 8.6 90 0.0 22 7   101.70     LegendNANA
09:00 12.8 9.8 82 0.0 22 3   101.69     LegendNANA
10:00 15.1 9.6 70 0.0 25 10   101.67     LegendNANA
11:00 17.5 9.6 60 0.0 25 7   101.65     LegendNANA
12:00 19.2 9.6 54 0.0 23 12   101.58     LegendNANA
13:00 19.1 9.6 54 0.0 23 13   101.54     LegendNANA
14:00 18.7 9.8 56 0.0 20 11   101.48     LegendNANA
15:00 17.2 10.5 65 0.0 18 9   101.47     LegendNANA
16:00 15.2 9.7 70 0.0 21 11   101.47     LegendNANA
17:00 12.5 9.4 81 0.0 21 11   101.43     LegendNANA
18:00 11.1 9.1 88 0.0 21 5   101.46     LegendNANA
19:00 10.5 9.2 92 0.0 21 4   101.42     LegendNANA
20:00 9.9 8.9 93 0.0 18 3   101.40     LegendNANA
21:00 10.7 9.1 90 0.0 17 7   101.41     LegendNANA
22:00 10.4 9.1 92 0.0 19 4   101.41     LegendNANA
23:00 10.2 9.3 94 0.0 23 11   101.40     LegendNANA

Notes on Data Quality.

Legend

  • E = Estimated
  • M = Missing
  • NA = Not Available*
  • [empty] = Indicates an unobserved value
Date modified: